Theta_e
329 331 333 334 334 335 335 336 336 336 337 338 339 339 341 342 343 344 344 345 345 345 347 348 348 349 349 349 349 350 350 349 349 347 347 347 347 345 345 345 345 344 345 347 349 350 352 353 354 355 355 355 355 356 357 357 357 358 357 357 357 357 356
327 330 332 334 334 335 336 336 336 337 337 338 339 339 340 341 343 343 344 344 345 346 347 348 349 348 349 349 349 349 349 349 349 350 348 347 348 347 346 346 346 345 345 347 348 350 351 352 353 354 354 355 355 356 357 358 357 357 357 356 355 355 355
327 329 331 333 334 335 336 336 336 337 337 338 339 340 340 341 342 343 344 344 344 346 347 348 349 349 349 349 349 349 349 349 348 348 347 346 347 348 347 346 347 347 346 347 348 349 352 351 352 353 354 354 355 355 356 357 358 358 357 356 355 355 354
327 329 331 333 335 336 336 336 337 337 338 339 339 340 341 341 342 343 344 344 344 345 345 347 349 349 349 349 348 348 348 348 348 348 348 347 347 348 348 346 347 348 348 347 349 351 352 352 352 352 357 353 354 355 356 357 358 358 357 356 355 355 354
326 329 331 332 333 335 335 336 336 336 337 339 340 342 342 343 343 343 344 345 345 345 346 347 349 349 350 350 349 349 349 348 348 348 348 348 347 348 348 348 347 347 349 349 349 351 351 351 351 351 353 353 353 354 355 356 356 357 357 356 355 354 354
325 327 329 331 333 334 335 336 337 337 337 337 339 340 342 343 343 343 344 345 345 346 346 347 347 349 348 349 349 349 349 349 349 349 348 348 347 346 347 349 348 348 348 349 351 351 351 351 351 351 351 353 353 353 354 355 356 356 356 355 355 354 353
325 327 329 331 333 334 335 336 337 337 338 338 340 341 343 343 343 344 344 344 345 344 345 345 347 348 348 349 349 349 348 348 348 348 348 348 348 347 347 348 350 350 349 350 350 351 351 351 351 351 351 352 353 353 353 354 355 356 356 355 354 354 354
325 327 329 331 333 335 336 336 337 338 338 338 339 340 341 343 344 344 344 344 345 345 345 345 346 347 348 348 348 348 348 348 348 348 348 348 348 348 348 348 349 350 351 349 350 352 352 352 352 352 352 351 351 352 353 354 354 355 355 354 354 353 354
326 328 329 331 333 335 336 337 337 337 337 337 338 339 341 342 343 344 344 345 345 345 345 346 347 348 348 348 348 348 348 348 348 348 348 347 347 348 348 349 349 350 351 351 350 352 352 353 353 352 352 351 351 352 352 353 354 355 355 355 354 353 353
325 327 329 332 334 335 336 337 337 337 337 337 337 338 340 341 343 344 345 345 346 345 346 346 347 348 348 348 348 348 348 347 348 348 348 347 348 347 348 349 349 351 351 352 352 351 352 353 353 353 352 352 351 351 352 353 353 354 355 355 354 353 353
326 328 330 331 333 334 335 336 336 336 337 337 337 338 339 341 342 344 345 346 346 346 347 347 348 348 348 348 348 348 347 347 348 347 347 347 348 348 348 349 349 350 351 352 352 352 352 353 353 353 353 352 352 351 351 352 353 353 354 355 355 354 354
326 328 329 331 333 334 334 335 336 336 337 337 338 338 339 340 342 344 345 346 347 347 348 348 349 348 348 348 348 348 347 347 347 347 347 348 348 348 349 349 349 349 350 351 351 352 353 352 353 353 352 353 353 353 352 352 353 353 354 354 355 354 354
326 328 329 331 333 334 335 335 335 336 337 337 338 338 339 340 341 343 345 346 348 349 349 349 349 349 348 348 348 348 348 348 348 348 348 348 349 349 349 349 349 349 349 351 351 352 352 352 352 353 353 353 353 353 353 353 353 353 353 354 354 354 354
333 328 329 331 332 333 333 334 335 336 336 337 338 338 340 341 342 343 344 346 348 349 350 350 350 349 349 349 348 348 349 349 349 349 349 349 349 349 349 349 349 349 349 350 349 350 351 352 352 353 353 353 353 353 353 353 353 353 353 353 354 354 354
326 327 328 330 331 333 334 334 335 335 336 337 338 338 339 340 341 342 344 346 348 350 350 351 350 350 350 349 349 349 350 350 351 351 350 350 349 349 349 349 349 349 349 349 349 350 350 352 353 353 352 353 353 353 353 352 352 353 353 353 353 354 353
325 326 327 329 330 332 333 335 335 336 336 337 337 338 339 340 341 341 342 344 347 349 351 352 351 350 350 350 350 350 351 351 351 351 351 350 350 349 349 349 349 349 349 349 349 349 349 349 351 352 352 352 352 353 353 353 353 346 336 340 353 353 354
325 326 327 329 330 332 333 334 335 336 336 336 337 338 339 340 341 342 342 343 345 347 351 352 351 351 351 351 351 352 352 351 351 352 351 351 351 350 350 349 349 349 349 349 349 349 349 349 348 349 351 352 352 351 352 353 353 337 331 332 335 350 353
324 325 326 328 330 331 332 334 334 334 335 336 337 338 339 340 341 341 342 343 344 346 350 351 352 351 351 352 352 353 352 352 352 351 351 351 351 351 350 350 349 349 349 349 348 349 349 348 348 348 349 350 351 352 352 352 339 333 330 330 330 335 353
324 325 326 327 329 331 332 333 333 334 336 337 338 338 340 341 341 341 342 343 344 347 348 350 351 351 352 352 353 353 353 353 352 352 352 351 351 351 351 350 349 349 348 348 349 349 348 348 348 348 348 348 348 350 351 352 337 331 328 328 328 328 338
324 326 326 328 329 330 331 333 334 335 336 337 338 340 341 342 342 343 344 344 345 346 348 349 351 352 352 353 353 353 353 353 353 352 352 353 352 352 351 350 349 349 349 349 349 348 348 348 348 348 348 348 348 348 350 351 338 329 326 325 325 326 331
320 324 325 326 327 329 330 331 332 333 334 336 338 339 340 341 343 344 344 345 345 346 348 349 351 352 352 353 353 354 354 353 353 353 353 353 353 352 351 350 350 349 349 349 348 348 347 348 347 348 348 348 349 348 348 350 335 327 323 322 322 324 326
325 324 323 324 325 325 326 328 331 333 334 338 339 338 339 341 344 345 345 347 346 347 348 350 351 351 353 353 354 354 355 354 353 353 353 353 353 352 351 351 350 350 350 349 349 349 349 348 349 348 348 349 349 348 348 350 332 326 323 321 321 323 335
335 333 333 332 331 332 332 332 333 338 341 338 339 339 339 342 345 346 346 346 347 347 348 349 350 352 353 354 355 355 356 355 355 354 354 353 353 352 352 351 351 351 351 349 349 348 347 347 347 348 348 349 349 348 348 349 336 323 320 319 319 321 338
344 344 343 342 342 340 340 340 341 343 340 340 340 340 341 344 346 346 346 346 347 347 347 348 349 352 354 354 356 356 357 357 356 355 355 354 353 352 353 353 353 352 352 350 349 348 348 348 348 348 348 348 348 349 348 348 339 322 318 317 317 325 340
345 345 347 348 347 347 347 347 347 349 349 347 347 346 341 345 346 346 346 347 347 348 347 347 348 350 352 355 357 358 358 358 357 356 355 355 354 354 353 353 353 353 353 352 351 350 350 349 348 348 348 348 348 342 346 349 341 321 319 316 315 325 342
344 345 346 348 348 349 350 352 352 352 351 351 349 349 341 343 345 347 346 347 347 347 347 348 349 350 351 353 356 358 358 358 358 357 356 355 355 355 354 354 354 353 352 352 352 350 350 349 349 347 347 348 349 349 348 348 349 339 317 315 314 318 341
344 346 346 347 348 352 349 350 350 350 351 352 354 354 353 351 350 350 347 342 341 343 345 346 348 350 351 351 353 355 357 358 358 357 357 357 356 356 355 355 353 353 352 351 352 351 350 349 348 348 348 348 349 349 350 350 350 346 318 314 313 314 325
343 344 347 350 352 349 347 348 348 349 349 350 352 355 356 355 353 351 350 350 349 351 357 353 342 344 348 349 351 353 355 356 358 358 358 358 357 355 354 355 354 353 352 352 351 349 349 349 347 347 347 347 348 348 349 351 342 351 322 316 313 313 315
339 341 342 343 344 348 346 344 344 345 346 348 349 351 352 352 351 350 349 348 348 351 353 354 352 343 344 348 350 352 353 355 356 356 358 358 357 355 354 354 354 353 352 351 350 349 348 348 347 347 346 346 346 347 348 349 348 334 338 316 313 312 312
337 340 341 342 343 343 344 342 342 343 344 345 346 347 348 349 348 350 348 346 350 352 355 353 352 342 341 344 348 351 352 353 355 356 357 358 357 356 355 354 354 353 352 351 350 349 348 347 348 346 345 345 345 346 347 348 350 337 328 328 313 313 312
334 337 339 340 341 342 342 341 340 341 342 343 344 345 345 345 346 347 345 346 351 353 353 354 354 344 340 341 345 349 351 353 354 355 356 357 357 355 354 354 354 352 352 351 350 349 348 348 348 347 346 346 345 345 346 349 349 350 334 323 318 313 312
332 335 338 340 340 340 340 340 340 340 340 341 342 343 345 343 344 343 341 345 351 351 352 355 354 354 349 341 342 345 350 352 353 354 355 356 357 356 356 355 354 353 352 352 351 350 349 349 348 347 347 347 347 346 347 349 350 351 347 332 326 319 313
328 331 334 336 339 340 339 339 339 339 340 339 340 341 342 342 343 343 343 346 347 349 350 353 355 355 354 349 343 342 347 351 352 353 355 355 356 356 356 355 354 353 352 353 352 351 351 350 349 348 348 348 348 348 347 348 350 349 338 336 335 331 327
326 328 331 334 337 339 336 338 337 338 338 337 337 339 339 340 341 342 344 345 346 347 350 354 355 354 352 352 347 345 347 350 359 357 354 355 356 356 355 355 355 354 353 353 353 352 352 352 351 349 350 349 350 349 348 347 347 342 340 334 335 335 333
326 327 329 331 334 337 335 334 337 336 337 336 335 337 337 337 338 340 341 342 343 344 347 350 354 352 349 348 347 346 348 351 355 355 352 335 319 312 311 319 339 352 353 342 343 356 356 354 353 353 354 353 351 350 348 348 343 343 331 338 326 333 334
325 326 328 331 333 333 334 336 334 335 335 333 334 336 336 336 336 337 339 340 340 342 343 346 348 348 348 347 346 347 349 353 354 351 343 335 328 321 316 308 299 302 323 332 319 313 312 325 354 356 355 354 343 335 352 351 350 315 306 307 310 313 316
324 325 327 330 331 333 333 332 336 333 332 330 333 334 334 334 334 335 337 337 338 340 341 342 345 346 347 347 346 345 353 349 346 341 336 334 332 330 326 323 317 300 297 303 306 303 308 311 309 313 331 348 336 312 303 308 302 300 298 299 300 299 299
325 324 328 330 331 332 333 331 331 330 331 330 332 331 332 333 333 332 335 336 338 339 338 340 341 342 344 345 346 344 344 343 341 337 335 332 332 332 332 330 327 323 305 298 299 300 295 295 302 311 319 323 321 315 312 302 298 297 297 298 298 297 297
Wind_Speed
22 20 18 18 17 17 19 19 20 19 19 19 18 19 19 18 18 16 16 18 20 19 19 18 18 16 17 16 16 15 14 12 10 10 10 10 9 9 9 8 9 8 8 8 9 9 8 7 8 8 7 7 7 7 7 6 6 6 6 5 6 6 6
15 16 18 17 17 18 19 19 17 17 17 17 17 19 18 19 18 18 18 19 21 21 20 19 18 17 17 16 14 14 14 14 13 10 9 8 7 7 8 8 9 9 9 9 8 7 6 8 8 8 8 7 8 7 7 7 7 7 6 6 6 6 6
16 17 17 18 18 18 20 17 17 17 18 17 17 18 20 21 20 21 19 19 20 19 18 19 19 18 17 16 15 15 15 13 12 12 12 11 11 11 8 8 8 8 9 7 6 6 7 7 7 8 8 8 8 7 7 7 7 7 7 6 7 7 6
18 18 18 20 21 21 21 20 21 19 17 18 20 21 21 21 20 19 19 20 20 19 19 19 18 18 17 17 16 15 15 14 14 13 13 11 11 9 8 8 8 7 6 8 8 7 7 7 8 8 8 8 8 8 7 8 8 8 7 7 7 7 7
22 21 19 18 19 17 16 16 16 17 18 20 20 19 19 19 18 17 17 18 20 21 21 20 17 16 15 15 13 12 14 15 14 12 12 11 10 9 9 10 10 10 10 7 6 7 7 7 8 8 8 8 8 8 9 8 8 8 8 8 7 7 7
21 20 19 19 18 17 18 20 21 21 21 20 20 19 18 19 17 18 18 17 17 18 17 16 17 16 16 15 13 13 12 13 13 12 12 11 11 10 11 11 10 10 9 10 8 8 8 8 8 8 9 8 9 9 9 9 9 8 8 8 8 8 7
19 20 19 19 18 19 20 20 20 20 20 19 17 15 14 15 18 18 17 17 18 19 18 17 17 16 15 14 14 14 14 14 13 14 12 11 12 12 11 10 9 9 9 6 8 8 8 9 9 9 9 9 9 10 9 9 9 8 8 8 9 8 8
20 19 20 20 20 20 20 20 20 19 17 13 13 14 17 17 16 17 18 18 18 17 17 18 17 16 15 13 13 15 14 14 13 13 12 13 12 13 11 10 10 9 7 8 8 8 10 10 9 8 9 9 10 10 10 10 10 9 9 9 9 9 7
19 21 21 20 20 20 20 20 20 19 19 18 19 19 19 18 18 18 19 18 17 17 18 17 17 15 14 14 14 15 14 14 13 13 14 14 13 13 12 11 10 8 9 9 8 8 9 10 10 9 9 10 10 10 10 10 10 9 10 10 11 10 9
17 17 19 20 19 18 17 17 15 14 14 16 16 16 17 17 17 17 17 18 17 19 19 17 16 15 14 14 15 15 14 14 13 14 14 14 13 14 13 11 10 9 10 10 8 9 9 9 9 9 9 10 10 10 10 10 10 10 10 11 11 10 10
14 18 19 18 17 17 15 14 15 15 16 17 17 17 16 17 17 17 17 17 17 17 18 17 15 15 15 15 16 15 14 14 13 14 14 14 13 14 13 13 11 10 11 10 10 10 9 8 8 9 10 11 12 12 12 11 11 11 11 10 10 10 10
14 15 16 17 16 15 16 17 17 17 17 16 16 17 17 17 17 17 16 18 17 16 15 15 14 16 16 16 16 15 16 15 14 15 16 15 14 15 14 13 12 12 11 11 12 11 11 10 9 10 12 12 12 12 12 10 10 11 12 11 10 10 10
13 15 16 17 16 16 16 15 18 19 18 18 18 17 16 16 17 17 16 17 17 15 16 16 16 16 16 16 16 15 16 16 15 15 14 14 14 13 13 13 13 13 13 12 12 12 12 11 12 11 12 13 12 12 12 11 10 10 10 10 10 11 11
15 15 15 14 14 16 17 19 19 18 18 18 17 16 15 15 16 17 17 17 16 16 16 14 15 15 16 16 16 15 16 15 14 14 14 13 13 12 13 13 13 13 12 11 13 13 13 13 13 12 11 12 11 12 10 9 10 10 11 11 11 11 12
16 17 16 16 17 18 18 18 17 18 18 18 17 17 16 15 15 14 13 14 14 15 16 15 15 16 16 15 15 15 14 14 13 13 13 13 12 13 13 13 12 12 12 12 12 11 13 12 12 12 12 12 12 12 10 10 11 10 11 12 12 12 12
17 16 16 18 17 18 18 19 18 18 18 17 17 17 16 15 15 16 17 17 16 16 16 15 16 16 15 15 15 14 14 13 12 12 13 13 14 14 13 12 12 12 13 13 13 12 12 12 12 12 13 13 13 11 10 10 10 13 18 16 12 12 11
16 17 18 18 17 18 18 18 18 17 17 17 18 18 17 17 16 16 15 15 15 16 15 15 15 16 16 16 14 13 13 12 12 12 13 14 13 13 13 13 12 12 12 13 12 13 12 12 13 13 13 14 13 13 11 11 11 17 16 18 19 14 11
15 15 16 16 18 18 17 18 16 16 17 18 18 18 17 16 15 15 16 16 16 15 13 14 14 15 14 14 13 13 13 13 13 13 14 13 14 14 13 13 13 13 13 13 13 12 11 13 14 13 13 12 12 13 13 12 15 17 17 18 19 17 13
16 16 16 17 17 17 17 18 17 18 18 17 17 18 18 18 17 17 17 16 14 13 14 14 14 13 13 13 13 14 14 13 14 14 14 14 14 13 13 13 14 14 13 14 13 11 13 14 13 13 13 13 13 14 13 12 16 16 17 17 18 19 16
16 16 16 16 17 18 17 15 14 16 18 19 19 20 19 18 19 18 15 13 11 13 13 13 13 14 14 14 14 14 14 14 14 14 14 14 14 13 14 14 15 15 14 12 12 14 14 13 14 13 13 14 14 13 12 13 15 17 18 18 18 18 16
6 10 14 14 14 14 14 15 14 12 11 12 15 13 10 11 10 6 7 10 12 12 12 13 14 14 14 14 14 14 14 14 14 14 14 14 14 14 14 15 14 14 13 13 14 14 14 14 14 14 14 14 13 13 13 13 16 16 18 18 19 18 15
4 6 7 7 10 9 10 11 14 15 15 11 10 10 12 12 11 12 12 12 13 12 13 13 13 14 13 13 14 14 14 14 14 15 14 14 14 14 15 14 14 15 13 13 13 12 12 12 13 14 14 14 13 13 15 14 16 17 18 19 18 17 11
6 7 8 6 8 6 6 7 8 7 6 6 8 9 10 9 11 11 10 11 11 12 12 12 13 14 14 14 14 14 14 14 15 15 15 14 14 15 15 14 14 14 12 13 13 13 14 14 13 13 13 14 13 14 15 13 14 17 18 18 18 13 10
9 11 11 11 10 10 10 9 9 9 11 9 7 7 6 7 9 10 11 11 10 11 12 12 14 13 13 14 14 14 14 15 15 15 15 14 15 16 15 15 13 14 12 14 14 14 14 13 12 12 13 14 14 15 14 13 13 17 18 19 18 17 12
11 12 12 11 13 13 12 11 11 10 9 8 7 4 9 10 11 11 10 10 10 11 12 13 13 12 13 14 14 15 15 15 15 15 15 15 15 15 15 15 15 15 13 13 13 13 12 11 12 12 12 12 13 16 16 13 12 17 18 19 19 17 11
12 13 13 13 14 14 13 13 15 14 12 10 5 2 6 9 9 8 8 8 8 9 12 13 12 13 12 13 14 14 15 13 15 15 15 15 15 14 15 14 12 12 12 12 12 11 11 11 12 13 12 11 12 12 13 13 12 12 19 18 19 21 13
11 11 12 13 12 14 15 15 15 13 11 7 6 7 6 8 8 5 4 4 4 3 3 3 4 6 8 10 12 13 14 13 14 15 15 15 15 15 14 12 12 12 12 12 11 11 11 12 11 12 12 11 11 11 12 11 12 12 18 18 20 22 19
12 13 12 11 13 14 15 14 14 14 13 10 11 10 9 11 12 9 8 8 7 4 4 4 3 4 5 7 9 11 12 13 13 14 13 13 12 11 12 11 12 11 12 11 10 12 12 11 10 10 10 10 10 10 11 11 15 10 15 19 20 21 24
12 12 12 12 14 12 14 15 14 14 12 10 11 10 9 12 12 8 7 9 4 3 2 3 3 4 6 9 10 10 11 12 13 12 11 11 12 13 13 11 11 11 11 11 10 11 12 12 10 10 10 9 8 8 9 9 10 16 12 17 20 22 22
11 10 11 11 11 10 13 14 12 12 11 10 10 10 10 11 10 8 9 7 3 3 3 3 1 2 4 5 8 10 12 12 13 12 12 13 12 12 11 10 11 10 10 10 10 10 11 9 9 9 9 9 8 7 7 8 8 12 16 15 21 21 23
12 10 9 10 10 9 10 11 12 11 11 9 9 9 9 8 10 9 9 4 3 5 5 5 4 1 3 4 5 6 7 8 10 12 12 11 12 11 11 10 9 9 9 9 9 9 10 9 9 10 9 9 9 8 7 7 8 7 12 18 19 22 22
13 12 11 8 8 8 7 9 10 11 11 9 7 7 7 7 8 9 3 3 5 6 6 6 6 6 3 2 4 5 4 6 8 9 11 11 11 12 12 12 11 11 9 9 10 10 9 9 9 9 9 9 9 8 7 7 6 7 6 9 12 13 17
11 10 10 11 8 5 7 7 9 9 9 9 6 6 7 6 6 4 3 3 3 3 3 4 5 6 6 4 3 3 4 6 7 6 7 8 9 9 9 9 9 9 9 9 9 8 8 8 8 8 8 8 8 7 6 7 7 6 4 5 6 7 9
11 10 9 7 7 5 4 6 7 7 7 7 5 6 7 7 7 6 6 6 6 6 6 6 5 5 5 6 3 2 4 5 7 7 6 6 7 8 8 7 8 9 10 10 10 9 9 9 8 9 9 9 8 7 7 7 7 6 6 6 7 7 7
10 9 8 10 7 6 4 4 6 5 6 5 3 5 6 6 5 5 6 5 5 5 6 6 5 5 4 4 3 3 2 5 5 6 6 5 5 6 4 0 3 6 6 2 3 9 10 9 8 9 8 8 8 8 8 7 6 8 8 8 10 10 8
9 10 11 9 8 7 5 4 4 6 6 5 5 6 7 6 6 5 4 4 4 5 6 5 5 5 6 5 3 2 2 4 5 5 6 7 7 7 5 8 8 5 1 2 5 5 2 3 8 7 8 7 4 3 8 9 8 8 11 9 8 7 6
9 9 9 8 8 10 5 3 3 4 4 3 4 5 5 5 4 5 5 4 4 4 4 4 5 5 5 5 6 3 3 4 5 5 6 6 6 7 7 5 8 13 12 6 5 4 4 2 4 5 6 9 7 2 9 5 12 13 12 12 11 10 11
8 5 5 5 5 6 6 3 4 3 3 2 4 4 4 4 4 4 4 4 4 4 3 4 4 4 4 4 4 3 1 3 4 5 6 5 5 6 7 6 6 6 13 14 11 11 10 9 7 3 5 10 12 10 5 7 8 12 12 12 13 13 13
Wind_Direction
194 194 196 196 195 194 195 196 195 192 191 187 186 185 184 186 186 184 187 186 189 189 189 188 189 189 192 196 198 197 198 196 195 198 199 202 201 199 198 201 201 200 193 194 200 198 198 180 188 196 196 201 200 199 198 198 201 204 199 200 199 201 208
197 196 195 194 195 197 199 198 192 193 192 188 185 183 184 186 185 186 188 188 189 189 188 189 189 190 192 195 196 197 196 196 194 197 198 203 203 203 199 201 203 203 199 203 199 198 178 188 186 190 196 199 205 200 198 198 202 201 198 198 201 209 208
202 200 195 193 196 197 200 194 191 193 193 189 185 184 187 187 187 188 186 187 190 191 189 189 189 190 192 193 193 197 196 194 194 194 196 199 200 200 196 197 204 206 208 203 195 192 189 186 188 190 192 197 203 201 201 200 203 203 203 195 201 207 209
200 201 197 195 196 197 196 192 192 192 192 190 189 188 188 188 187 187 187 187 188 189 190 192 190 191 192 192 194 195 195 195 194 195 199 199 199 197 193 198 201 205 203 205 199 194 193 187 188 190 192 195 200 202 200 203 202 205 204 197 204 209 211
199 199 196 195 199 197 193 193 192 192 194 194 192 188 189 187 185 186 189 189 189 191 192 189 190 192 193 193 193 194 195 195 196 197 198 199 197 192 198 201 201 202 207 202 194 193 191 189 191 190 195 194 199 198 203 204 205 203 204 200 207 208 214
198 196 195 196 195 193 192 193 191 192 193 193 190 188 187 184 184 188 189 188 192 194 191 189 191 191 193 194 193 194 193 196 197 197 197 196 193 197 203 204 201 204 202 202 192 198 195 194 194 194 196 198 197 199 202 203 207 202 206 203 211 209 210
198 195 195 194 193 193 193 194 193 193 193 194 189 183 180 182 187 188 186 190 191 191 190 191 193 192 195 190 194 192 193 194 194 197 196 195 197 202 206 205 204 204 207 190 199 194 198 200 199 197 200 200 200 201 201 203 204 203 204 206 212 213 212
194 193 195 193 193 192 192 192 193 191 189 185 178 179 182 186 185 187 190 191 190 191 192 192 192 193 193 191 194 195 194 195 194 195 194 196 199 204 204 203 204 203 193 199 203 193 203 205 202 200 199 201 206 204 204 204 204 201 200 207 211 215 211
194 191 191 193 193 192 191 190 189 185 183 181 183 185 185 183 187 189 190 190 190 190 193 192 192 191 189 191 193 197 196 193 194 193 195 198 200 204 203 203 204 197 199 205 202 200 204 206 205 203 202 207 208 207 207 206 206 203 202 208 209 212 213
189 191 194 193 191 190 189 187 182 177 180 182 185 186 185 186 187 188 189 190 189 193 193 190 190 189 189 192 195 196 195 195 195 194 197 200 202 203 203 201 202 197 203 206 203 204 208 206 206 204 205 210 213 211 211 207 207 207 207 209 208 212 214
183 189 192 192 190 186 180 172 172 179 184 186 187 188 186 186 187 188 189 189 191 195 191 190 188 187 189 191 194 194 195 196 195 197 199 201 202 204 202 203 201 199 203 203 206 208 206 208 204 206 208 212 214 214 213 211 206 209 211 211 210 211 213
181 186 192 187 184 176 174 176 178 181 183 186 189 188 187 187 186 188 188 191 191 190 187 189 187 190 189 192 193 193 195 197 196 198 199 201 203 204 203 203 203 202 204 203 206 208 209 207 205 207 212 216 217 216 217 212 208 211 213 211 210 212 216
179 184 188 185 179 178 176 174 180 184 184 186 188 188 187 186 187 188 188 190 190 188 187 188 188 190 191 192 194 194 196 196 197 198 200 201 203 203 203 204 205 204 205 203 207 207 210 210 209 212 215 219 219 219 218 213 212 215 215 214 212 213 215
178 183 186 180 176 173 176 180 183 183 186 186 188 188 187 188 188 188 188 189 187 186 187 187 188 189 192 192 195 197 197 197 196 198 199 200 202 203 205 207 207 207 207 205 208 211 211 211 212 216 217 221 220 222 218 214 215 217 217 215 214 215 218
178 184 181 176 178 177 179 180 182 184 184 186 185 184 186 187 189 189 190 189 188 187 189 185 186 189 191 193 196 198 197 196 196 197 197 198 199 204 206 207 208 208 209 209 211 212 214 213 214 216 221 225 223 223 216 215 217 216 215 215 217 217 220
180 182 179 178 179 181 181 181 182 183 183 182 183 184 184 187 190 191 191 190 188 188 187 181 187 188 191 194 197 197 195 194 194 195 195 196 200 203 204 206 206 208 210 212 212 213 213 214 215 216 219 223 225 224 219 219 221 220 215 212 214 216 220
180 182 180 180 180 181 182 183 184 182 180 181 183 182 185 189 192 192 193 192 190 190 186 182 186 189 191 196 195 192 191 191 195 193 196 199 201 201 201 204 205 209 211 213 213 214 213 213 216 218 219 221 224 223 221 223 225 221 213 214 214 213 217
180 181 179 180 182 181 182 183 180 179 182 183 183 184 186 189 190 189 196 193 192 188 181 184 187 189 191 193 190 190 190 193 192 194 198 198 202 201 201 201 204 207 210 211 212 213 213 216 217 218 220 223 224 225 224 225 226 220 214 213 213 213 218
180 179 181 182 181 183 182 181 181 182 184 182 183 186 190 188 186 193 195 192 189 179 182 185 185 184 189 191 191 191 191 192 192 196 198 199 201 201 199 201 204 207 208 211 211 211 214 217 216 219 220 222 224 227 225 228 225 218 215 213 212 213 216
180 181 183 182 181 181 181 183 183 183 183 182 185 189 190 187 190 195 191 185 176 182 182 180 183 185 190 192 192 192 192 192 193 196 199 198 199 199 200 202 206 206 207 208 207 212 217 215 217 219 220 221 224 228 229 228 226 213 212 212 211 210 207
193 184 184 183 182 182 179 179 176 174 178 187 189 187 179 187 189 160 163 175 183 183 180 182 184 188 191 193 193 192 193 192 194 198 199 199 198 199 202 204 207 206 206 206 209 212 214 214 216 218 219 221 223 228 230 231 222 211 209 211 209 207 201
126 141 166 177 172 166 162 166 170 175 182 176 166 172 181 180 168 170 180 181 182 181 183 182 186 190 192 193 193 193 193 192 194 198 199 199 198 199 203 205 206 206 205 207 212 215 215 217 217 218 218 219 220 225 232 233 217 208 208 208 208 197 200
92 106 103 95 113 116 113 111 109 108 107 133 165 172 178 164 167 173 172 178 181 181 183 184 189 192 192 194 193 194 194 194 195 198 200 198 198 201 203 204 207 209 204 207 211 213 214 217 216 218 218 218 217 222 231 234 216 205 206 206 200 185 207
66 82 93 98 94 101 105 107 109 115 122 126 135 151 145 153 167 169 176 182 176 177 185 188 194 192 191 194 194 196 196 196 196 199 200 198 199 202 205 205 206 208 202 205 208 212 215 215 219 218 218 217 218 219 226 230 215 201 205 202 191 189 200
53 68 76 85 99 100 97 98 102 101 97 103 110 163 162 161 164 167 178 180 179 182 189 197 196 192 192 193 195 199 198 196 198 200 200 199 202 203 204 204 205 207 202 206 209 214 212 213 218 221 221 220 221 221 223 229 219 201 203 198 190 191 204
49 63 74 81 79 88 92 95 88 76 77 72 56 58 149 147 151 162 168 177 177 185 199 203 200 199 195 193 195 198 199 198 198 201 200 202 205 204 206 205 205 206 203 206 208 211 211 212 215 219 222 218 220 222 221 224 224 206 202 195 191 190 197
49 57 66 73 84 86 81 77 80 81 76 69 60 62 79 105 102 102 128 144 152 213 245 269 240 209 205 196 195 197 200 200 199 201 203 203 204 204 205 202 204 204 202 205 206 209 212 213 214 219 222 219 218 222 221 219 220 212 197 197 191 193 195
46 53 58 65 72 78 86 81 80 79 70 64 63 64 70 81 82 78 73 69 46 351 305 302 271 217 186 194 196 198 200 201 203 203 205 205 201 201 207 206 204 204 203 203 204 207 212 213 215 217 221 220 219 221 222 217 210 212 199 197 194 193 199
33 45 47 53 58 62 78 79 74 72 73 64 63 63 67 74 76 74 67 55 20 317 299 288 274 229 208 193 192 197 199 200 199 200 203 207 203 199 203 201 201 203 200 200 203 206 210 214 212 215 219 221 219 219 218 216 210 206 198 199 197 199 202
23 34 50 51 58 61 70 78 77 75 68 64 61 61 60 69 70 62 55 36 340 348 349 9 355 206 209 214 211 200 198 197 197 198 200 203 203 203 203 198 200 200 199 198 200 202 209 213 211 212 217 220 221 215 215 210 209 206 199 194 201 204 205
18 18 27 47 46 47 59 71 76 72 67 62 66 62 62 61 67 56 45 4 7 10 8 350 355 80 181 217 227 222 216 203 196 195 196 198 196 199 203 203 193 198 200 194 200 202 206 210 205 210 213 216 219 216 212 212 210 210 202 199 200 206 209
17 18 19 23 35 39 51 62 67 71 71 61 62 72 71 67 67 64 31 355 13 10 3 1 359 358 342 224 212 220 216 210 210 202 196 192 192 197 198 198 195 198 196 194 200 201 203 205 203 209 210 213 216 211 210 209 208 213 197 200 209 213 219
10 14 17 16 5 23 45 52 61 64 67 62 48 62 66 70 69 79 78 60 40 31 14 18 9 348 343 323 267 226 201 208 208 204 201 194 193 196 196 195 195 199 196 195 197 198 202 200 200 205 206 211 209 207 204 208 208 196 172 175 183 203 210
1 2 5 13 9 13 46 68 74 76 71 64 50 53 56 52 44 35 31 27 22 17 21 21 16 355 329 316 301 222 208 210 203 188 189 193 190 191 192 192 195 197 195 192 192 191 198 195 198 201 199 206 200 200 205 213 203 183 181 182 189 196 195
351 352 352 2 1 10 16 56 73 75 78 72 74 72 69 63 54 41 35 27 25 20 25 14 2 357 336 319 298 266 204 192 189 180 165 117 54 38 26 275 228 204 196 190 188 193 194 198 200 200 201 195 193 191 211 209 204 217 194 186 184 179 176
352 350 350 349 355 10 13 22 58 56 51 38 43 57 57 50 39 28 25 20 23 28 32 12 5 4 349 341 314 235 175 174 169 152 142 141 132 114 79 61 75 33 18 145 355 15 357 171 195 196 186 189 182 191 195 208 211 136 131 139 145 155 167
345 347 343 341 356 1 3 18 61 70 58 41 57 66 67 60 43 26 6 6 9 27 33 30 20 2 357 354 344 296 184 155 140 133 134 140 143 139 134 124 48 45 45 35 25 25 48 159 258 286 204 171 172 82 30 78 122 134 135 127 123 121 117
334 330 326 336 355 359 357 359 58 71 89 84 81 78 73 64 39 21 355 355 2 17 30 44 41 7 345 349 326 319 219 143 139 135 134 131 139 144 146 128 112 58 36 39 44 49 50 47 49 58 186 172 146 132 48 54 94 121 123 121 118 116 115